FW0515 Weather Reports


Display with metric or nautical units.
time (UTC)temp
F
wind
direction
speed
MPH
gust
MPH
rain 1hr
in
rain 24hr
in
rain mn
in
humidity
%
barometer
mb
20260505063006 56 359 0.0 0.0 0.00 0.00 0.00 80 1009.8
20260505061505 56 359 0.0 0.0 0.00 0.00 0.00 80 1009.8
20260505060003 56 359 0.0 0.0 0.00 0.00 0.00 79 1009.9
20260505054503 56 359 0.0 0.0 0.00 0.00 0.00 78 1009.9
20260505053100 56 359 0.0 0.0 0.00 0.00 0.00 76 1009.9
20260505051559 57 359 0.0 0.0 0.00 0.00 0.00 74 1009.9
20260505041604 58 350 0.0 0.0 0.00 0.00 0.00 70 1009.8
20260505040051 58 359 0.0 0.0 0.00 0.00 0.00 68 1009.8
20260505034551 59 359 0.0 0.0 0.00 0.00 0.00 67 1009.8
20260505033050 59 359 0.0 0.0 0.00 0.00 0.00 65 1009.8
20260505031550 60 359 0.0 0.0 0.00 0.00 0.00 64 1009.9
20260505030058 60 11 0.0 0.0 0.00 0.00 0.00 63 1009.9
20260505024550 60 12 0.0 0.0 0.00 0.00 0.00 62 1009.8
20260505023048 60 10 0.0 0.0 0.00 0.00 0.00 61 1010.0
20260505021554 61 10 0.0 0.0 0.00 0.00 0.00 59 1010.1
20260505020056 61 8 0.0 0.0 0.00 0.00 0.00 59 1010.1
20260505014547 62 36 0.0 0.0 0.00 0.00 0.00 59 1009.9
20260505013048 62 33 0.0 0.0 0.00 0.00 0.00 57 1009.9
20260505011547 63 33 0.0 0.0 0.00 0.00 0.00 56 1009.7
20260505010105 63 31 0.0 0.0 0.00 0.00 0.00 55 1009.5
20260505004546 64 30 0.0 0.0 0.00 0.00 0.00 54 1009.4
20260505003050 64 23 0.0 0.0 0.00 0.00 0.00 54 1009.3
20260505001545 65 28 0.0 0.0 0.00 0.00 0.00 52 1009.2
20260505000052 66 26 0.0 1.0 0.00 0.00 0.00 51 1009.0
20260504234544 67 359 0.0 0.0 0.00 0.00 0.00 50 1009.0
20260504233050 67 359 0.0 0.0 0.00 0.00 0.00 50 1009.1
20260504231543 67 359 0.0 0.0 0.00 0.00 0.00 51 1009.0
20260504224558 68 359 0.0 0.0 0.00 0.00 0.00 48 1009.0
20260504223042 69 359 0.0 0.0 0.00 0.00 0.00 46 1009.0
20260504221542 69 359 0.0 0.0 0.00 0.00 0.00 47 1009.0
20260504220050 69 359 0.0 0.0 0.00 0.00 0.00 44 1009.1
20260504214544 70 359 0.0 0.0 0.00 0.00 0.00 44 1009.3
20260504213040 70 359 0.0 0.0 0.00 0.00 0.00 43 1009.3
20260504211538 71 359 0.0 0.0 0.00 0.00 0.00 42 1009.3
20260504210052 72 231 0.0 0.0 0.00 0.00 0.00 41 1009.3
20260504204545 75 315 0.0 0.0 0.00 0.00 0.00 37 1009.3
20260504203039 76 4 0.0 0.0 0.00 0.00 0.00 37 1009.4
20260504201536 75 298 0.0 0.0 0.00 0.00 0.00 37 1009.6
20260504200048 75 345 0.0 0.0 0.00 0.00 0.00 37 1009.7
20260504194532 76 221 0.0 0.0 0.00 0.00 0.00 37 1010.0
20260504193030 76 314 0.0 1.0 0.00 0.00 0.00 37 1010.2
20260504191530 77 15 0.0 0.0 0.00 0.00 0.00 35 1010.3
20260504190028 75 213 0.0 1.0 0.00 0.00 0.00 37 1010.4
20260504184534 76 308 0.0 0.0 0.00 0.00 0.00 35 1010.6
20260504183032 76 56 0.0 0.0 0.00 0.00 0.00 34 1010.8
20260504181524 75 54 0.0 0.0 0.00 0.00 0.00 35 1011.0
20260504180022 76 206 0.0 0.0 0.00 0.00 0.00 36 1011.2
20260504174519 76 4 0.0 0.0 0.00 0.00 0.00 34 1011.4
20260504173018 76 250 0.0 0.0 0.00 0.00 0.00 35 1011.7
20260504171515 75 222 0.0 0.0 0.00 0.00 0.00 36 1011.8
20260504081552 43 359 0.0 0.0 0.00 0.00 0.00 83 1014.4